Regional Weather Roundup
Issued by NWS

Home | Current Version | Previous Version | Graphics & Text | Print | Product List | Glossary On
Versions: 1 2 3 4 5 6 7 8 9 10 11 12 13 14 15 16 17 18 19 20 21 22 23 24 25 26 27 28 29 30 31 32 33 34 35 36 37 38 39 40 41 42 43 44 45 46 47 48 49 50
000
ASUS45 KBOI 261710
RWRID

IDAHO REGIONAL WEATHER ROUNDUP
NATIONAL WEATHER SERVICE BOISE ID
1000 AM MST SUN FEB 26 2017

NOTE: "FAIR" INDICATES FEW OR NO CLOUDS BELOW 12000 FEET
WITH NO SIGNIFICANT WEATHER AND/OR OBSTRUCTIONS TO VISIBILITY

IDZ012-014-261800-
SOUTHWEST IDAHO


CITY           SKY/WX    TMP DP  RH WIND       PRES   REMARKS
BOISE          CLOUDY    34  17  50 SE17      29.82S WCI  23
CALDWELL       CLOUDY    33  18  53 SE16      29.84S WCI  23
MOUNTAIN HOME  PTSUNNY   30  18  59 E23       29.83F WCI  17
$$

IDZ016-017-261800-
SOUTHCENTRAL IDAHO


CITY           SKY/WX    TMP DP  RH WIND       PRES   REMARKS
BURLEY         MOSUNNY   30  13  49 S17       29.84S WCI  18
JEROME           N/A    N/A N/A N/A MISG      29.85F
TWIN FALLS     SUNNY     28  13  53 S17G23    29.83S WCI  16
$$

IDZ019>023-261800-
SOUTHEAST IDAHO


CITY           SKY/WX    TMP DP  RH WIND       PRES   REMARKS
IDAHO FALLS    CLOUDY    17  13  84 CALM      29.86F
POCATELLO      CLOUDY    17   9  70 NE6       29.87F WCI   9
REXBURG        LGT SNOW  13  10  88 CALM      29.86S FOG
$$

IDZ006-010-011-018-031-032-261800-
CENTRAL IDAHO MOUNTAINS


CITY           SKY/WX    TMP DP  RH WIND       PRES   REMARKS
MCCALL         LGT SNOW  22  17  81 S10       29.68S WCI  11
STANLEY          N/A     20  12  71 SE8       29.68F WCI  10
SALMON         CLOUDY    28  10  47 S10G20    29.74F WCI  19
CHALLIS        PTSUNNY   20   8  60 CALM      29.73F
$$

IDZ002-004-006-007-026-261800-
NORTHERN IDAHO


CITY           SKY/WX    TMP DP  RH WIND       PRES   REMARKS
LEWISTON       LGT SNOW  33  30  88 NE7       29.78F FOG     WCI  27
LOWELL           N/A     33  30  88 CALM      29.83S
COEUR D`ALENE  CLOUDY    33  28  81 CALM      29.74S HAZE
MULLAN PASS    LGT SNOW  16  15  96 CALM      29.56S FOG
$$



USA.gov is the U.S. government's official web portal to all federal, state and local government web resources and services.